Location: Silverdale
(47.6506°N, 122.6941°W)
Time: 11:21:24
(UTC+00:00)

Vanguard 1 - Visible Passes

Search period start: 05 October 2022 00:00
Search period end: 15 October 2022 00:00
Orbit: 649 x 3832 km, 34.2° (Epoch: 04 October)

Date Brightness Start Highest point End Pass type
(mag) Time Alt. Az. Time Alt. Az. Time Alt. Az.
07 Oct 12.4 02:04:11 10° WSW 02:11:20 21° SW 02:16:21 10° S visible
08 Oct 12.6 02:25:55 10° WSW 02:31:18 16° SW 02:35:25 10° S visible
09 Oct 12.9 02:48:55 10° WSW 02:51:10 11° SW 02:53:09 10° SSW visible
13 Oct 13.2 01:46:13 10° WSW 01:52:34 15° SW 01:57:26 10° SSW visible
14 Oct 13.4 02:10:31 10° WSW 02:12:15 10° SW 02:13:52 10° SW visible
